Overview Statistics Trail Chart Weather Telemetry Raw packets
 

This is the latest recevied weather packets stored in our database for station/object DK6MR-13. If no packets are shown the sender has not sent any weather packets the latest 10 day(s).

<< 8 9 10 11 12 13 14 >>
Time Temp. Humidity Pressure Rain* Wind** Luminosity Snow
1777873058 12.22° C 79% 1011.5 hPa 0 mm - - -
1777872157 11.67° C 78% 1011.5 hPa 0 mm - - -
1777871256 11.67° C 79% 1011.1 hPa 0 mm - - -
1777870355 11.67° C 80% 1011.1 hPa 0 mm - - -
1777869454 11.67° C 82% 1010.8 hPa 0 mm - - -
1777868553 11.67° C 81% 1011.1 hPa 0 mm - - -
1777867652 11.67° C 81% 1010.8 hPa 0 mm - - -
1777866751 11.67° C 83% 1010.8 hPa 0 mm - - -
1777865850 11.67° C 83% 1010.8 hPa 0 mm - - -
1777864949 11.67° C 82% 1010.8 hPa 0 mm - - -
1777864048 11.11° C 84% 1011.1 hPa 0 mm - - -
1777863147 11.11° C 84% 1011.1 hPa 0 mm - - -
1777862246 11.11° C 84% 1010.8 hPa 0 mm - - -
1777861345 11.11° C 83% 1011.1 hPa 0 mm - - -
1777860445 11.11° C 83% 1011.5 hPa 0 mm - - -
1777859544 11.67° C 83% 1010.8 hPa 0 mm - - -
1777858643 11.11° C 83% 1011.1 hPa 0 mm - - -
1777857742 11.67° C 82% 1011.5 hPa 0 mm - - -
1777856841 11.67° C 80% 1011.1 hPa 0 mm - - -
1777855940 12.22° C 79% 1011.1 hPa 0 mm - - -
1777855039 12.22° C 78% 1011.1 hPa 0 mm - - -
1777854138 12.78° C 77% 1011.1 hPa 0 mm - - -
1777853237 12.78° C 76% 1011.1 hPa 0 mm - - -
1777852336 12.78° C 77% 1011.1 hPa 0 mm - - -
1777851435 12.78° C 76% 1011.1 hPa 0 mm - - -

* Rain latest hour (hover to see other rain measurements)
** Current wind speed in m/s (hover to see current wind gust speed)